Regional Weather Roundup
Issued by NWS Sioux Falls, SD

Home | Current Version | Previous Version | Text Only | Print | Product List | Glossary On
Versions: 1 2 3 4 5 6 7 8 9 10 11 12 13 14 15 16 17 18 19 20 21 22 23 24 25 26 27 28 29 30 31 32 33 34 35 36 37 38 39 40 41 42 43 44 45 46 47 48 49 50
000
ASUS43 KFSD 281202
RWRFSD

WEATHER ROUNDUP FOR SE SOUTH DAKOTA/SW MINNESOTA/NW IOWA
NATIONAL WEATHER SERVICE SIOUX FALLS SD
700 AM CDT SUN AUG 28 2016

NOTE: "FAIR" INDICATES FEW OR NO CLOUDS BELOW 12,000 FEET WITH NO
SIGNIFICANT WEATHER AND OR OBSTRUCTIONS TO VISIBILITY.


SDZ038>040-050-052>070-281300-
SOUTHEAST SOUTH DAKOTA

CITY           SKY/WX    TMP DP  RH WIND       PRES   REMARKS
BROOKINGS      CLEAR     63  62  97 SE8       30.07R
CHAMBERLAIN    CLEAR     70  67  89 S9        29.97R
6HR MIN TEMP:  70; 6HR MAX TEMP:  73;

HURON          CLEAR     65  63  93 SE12      29.98R
6HR MIN TEMP:  65; 6HR MAX TEMP:  70;

MADISON        FAIR      63  63 100 S9        30.07R
MITCHELL       CLEAR     66  64  93 SE9       30.01R
6HR MIN TEMP:  65; 6HR MAX TEMP:  69;

SIOUX FALLS    PTCLDY    65  64  97 E5        30.08R
6HR MIN TEMP:  63; 6HR MAX TEMP:  70;

WINNER         FAIR      71  65  81 SW15      29.96S
YANKTON        CLEAR     64  61  88 SE5       30.03R
$$

MNZ071-072-080-081-089-090-097-098-281300-
SOUTHWEST MINNESOTA

CITY           SKY/WX    TMP DP  RH WIND       PRES   REMARKS
FAIRMONT       CLEAR     62  62 100 S7        30.12R FOG
JACKSON        FOG       63  61  94 S8        30.12R VSB 1/4
LUVERNE        CLEAR     61  59  94 CALM      30.10R FOG
MARSHALL       PTCLDY    62  61  96 NE8       30.12R
6HR MIN TEMP:  61; 6HR MAX TEMP:  64;

MONTEVIDEO     TSTM      63  63 100 S12       30.09F
PIPESTONE      CLEAR     64  63  94 S9        30.09R
REDWOOD FALLS  CLOUDY    63  60  90 N10G22    30.12R FOG
TRACY          PTCLDY    62  61  95 N10       30.12R FOG
WINDOM         CLEAR     64  63  94 S3        30.11R
WORTHINGTON    CLEAR     63  62  97 S7        30.11R FOG
$$

IAZ001>003-012>014-020>022-031-032-NEZ013-014-SDZ071-281300-
NORTHWEST IOWA

CITY           SKY/WX    TMP DP  RH WIND       PRES   REMARKS
CHEROKEE       CLEAR     64  64 100 S5        30.10F FOG
DENISON        FOG       64  64 100 MISG      30.09R VSB<1/4
ESTHERVILLE    FOG       61  61 100 S7        30.12R VSB 1/4
LE MARS        CLEAR     66  64  94 S7        30.09R
ORANGE CITY    CLEAR     64  63  94 CALM      30.09S FOG
SHELDON        CLEAR     64  64 100 SE6       30.09R
SIOUX CITY     CLEAR     64  62  93 SE7       30.08R FOG
6HR MIN TEMP:  63; 6HR MAX TEMP:  68;

SPENCER        FOG       63  62  97 S8        30.11R VSB 1/2
6HR MIN TEMP:  57; 6HR MAX TEMP:  63;

STORM LAKE     CLEAR     61  61 100 SE9       30.12S FOG
$$

ABBREVIATIONS USED IN REMARKS
   TC - TEMPERATURE IN CELSIUS
  WCI - WIND CHILL INDEX
   HX - HEAT INDEX
  VSB - VISIBILITY





USA.gov is the U.S. government's official web portal to all federal, state and local government web resources and services.